Temp
20 20 19 19 19 19 18 18 17 17 17 17 18 17 18 17 17 18 17 17 17 17 17 17 17 18 18 18 17 16 16 16 16 16 16 16 16 16 17 17 16 16 16
22 20 19 19 18 18 18 18 17 17 17 17 18 18 18 17 17 17 17 17 17 17 17 17 18 18 18 17 17 16 16 16 15 16 16 16 16 16 16 17 17 16 16
21 20 19 19 18 18 18 17 17 17 17 17 18 18 18 18 17 17 17 17 17 17 16 16 17 17 17 17 16 16 16 15 15 16 16 16 16 16 16 16 16 16 16
21 20 19 19 19 18 19 17 17 17 17 17 18 18 17 18 17 17 17 16 17 16 16 15 16 17 17 17 17 17 16 15 15 16 16 16 16 16 16 15 16 16 16
21 20 19 19 19 18 18 17 17 17 17 17 17 18 17 17 17 16 16 16 16 16 15 15 16 16 16 16 17 16 16 15 16 16 16 16 16 16 16 16 16 15 15
21 20 20 19 18 18 17 17 17 17 17 17 18 18 17 17 17 17 16 16 15 15 15 15 15 15 15 16 16 16 15 15 16 16 16 16 16 16 16 15 15 15 15
20 20 20 19 18 18 17 17 17 17 17 17 18 18 18 17 18 17 16 15 15 15 15 15 15 15 15 15 15 15 15 15 16 16 16 16 16 16 16 15 15 15 15
21 20 20 19 19 18 17 17 17 17 17 17 17 17 18 18 17 16 16 15 15 15 15 14 14 14 14 14 14 14 15 15 15 16 16 16 16 16 16 16 15 15 15
20 20 19 19 18 18 18 17 17 17 17 17 17 17 17 17 16 16 16 15 15 15 15 15 14 14 14 14 14 14 14 15 15 16 16 16 16 16 16 16 15 15 15
20 20 20 19 19 18 18 17 17 17 17 17 17 17 17 16 16 16 16 16 15 15 15 15 14 14 15 14 14 14 14 15 15 15 16 16 16 15 16 16 15 15 15
19 20 20 19 19 18 18 17 17 17 17 17 17 17 17 16 16 16 16 16 16 16 15 15 14 14 14 15 14 14 14 14 15 15 16 16 16 15 16 16 15 15 15
19 19 19 19 19 18 18 18 17 17 17 17 17 17 17 16 16 16 16 16 16 15 15 15 14 14 14 14 15 14 14 14 14 15 16 16 16 15 16 16 16 15 15
20 20 19 19 19 19 18 18 18 17 17 17 17 17 16 16 16 16 16 16 16 16 15 15 15 15 14 14 15 15 15 14 14 15 16 16 16 15 16 16 16 16 15
20 21 20 20 19 19 19 18 19 18 18 17 17 17 16 16 16 16 16 16 16 16 15 15 15 15 14 14 14 14 15 15 15 15 16 16 16 15 15 16 16 16 16
21 21 21 20 20 20 19 19 19 18 18 18 18 18 17 17 16 16 16 16 16 15 16 15 15 15 15 15 15 15 15 15 15 15 16 16 16 16 15 16 16 17 16
21 22 22 21 21 20 20 19 19 19 19 19 19 19 18 17 17 17 16 16 16 16 16 16 15 15 15 15 15 15 15 15 15 16 16 16 16 16 16 15 16 16 17
22 23 22 22 21 21 21 20 20 19 19 19 19 19 18 18 17 17 17 17 17 17 16 16 16 16 15 15 15 15 15 15 15 15 15 16 16 16 16 16 16 16 16
21 21 22 22 22 21 21 21 20 20 20 20 20 19 19 19 18 18 18 18 18 17 17 16 16 16 16 16 15 15 16 16 16 16 16 16 16 16 16 17 17 16 16
20 21 22 21 21 21 21 20 20 20 20 20 20 20 19 19 19 18 18 18 18 17 17 16 16 16 15 14 14 15 15 15 15 16 16 16 16 16 16 16 16 16 16
19 20 20 21 21 21 20 20 19 19 19 19 19 19 19 19 19 18 18 18 18 17 17 16 16 15 15 14 14 14 14 14 14 14 15 15 14 15 16 16 16 16 16
19 19 19 20 20 20 19 19 18 19 19 19 19 19 19 19 18 18 18 18 17 17 17 16 15 14 14 14 12 13 14 14 14 14 14 14 14 14 14 14 14 15 15
17 18 19 19 19 19 18 18 18 18 18 18 18 18 18 18 18 17 17 17 16 15 15 15 14 13 13 14 13 13 13 16 16 16 15 15 16 16 14 15 14 14 14
16 17 18 18 18 18 18 18 18 18 18 17 17 17 17 17 17 16 16 15 15 14 14 14 14 13 13 14 14 13 13 14 13 17 17 16 16 16 17 17 17 16 16
16 17 17 17 17 17 18 17 17 16 16 15 16 16 16 16 16 16 16 15 15 15 14 14 14 13 13 13 14 14 14 14 14 15 17 16 16 15 16 16 16 17 17
17 17 17 17 17 17 17 17 17 16 15 15 15 16 16 16 15 15 15 15 15 14 14 14 14 13 14 14 14 14 14 13 13 13 14 15 16 16 16 15 15 15 15
16 16 16 16 16 16 16 15 15 15 14 14 14 14 14 14 14 14 14 14 14 13 13 13 13 13 13 13 13 13 14 14 14 14 14 14 15 15 16 16 15 15 15
Height
764 766 768 772 774 776 778 781 782 784 785 786 787 787 788 788 787 788 788 787 787 786 786 786 787 786 786 787 787 786 787 788 786 785 785 785 785 785 785 784 783 784 784
760 765 768 771 774 776 778 780 781 783 784 786 787 787 787 788 788 788 788 786 787 787 787 787 787 787 787 788 788 787 788 788 787 786 785 786 786 786 786 785 784 784 783
760 763 766 770 773 775 777 780 781 783 784 785 786 786 786 787 788 789 788 787 787 787 788 788 788 787 787 786 786 786 786 787 786 785 786 786 786 786 786 784 784 784 783
760 763 766 769 771 774 777 779 780 782 783 784 784 785 786 787 788 789 789 788 789 788 787 788 788 788 788 786 786 786 786 785 785 784 784 785 785 786 786 784 784 784 784
762 764 766 769 772 774 776 778 779 781 782 784 783 784 785 787 788 789 789 789 788 788 787 787 787 788 787 787 787 786 786 786 784 784 783 783 784 785 785 784 784 784 784
762 765 766 769 772 774 776 777 778 780 782 783 783 784 785 786 787 788 788 788 787 787 786 787 786 786 787 786 787 786 786 785 784 784 783 783 783 783 783 782 782 782 783
763 765 766 769 772 774 775 776 777 779 781 782 782 783 784 786 786 787 787 787 786 786 786 785 785 785 786 786 785 785 785 784 784 783 783 782 782 782 782 782 782 783 783
762 765 766 768 771 773 774 776 777 778 780 781 782 783 784 785 786 786 786 786 786 785 784 784 783 783 784 784 784 784 784 783 783 783 783 782 782 782 782 781 781 781 781
763 764 764 767 770 772 774 775 776 777 778 780 781 782 784 784 785 785 785 785 785 783 782 782 781 782 782 782 782 782 782 782 781 782 781 781 781 781 781 780 780 780 780
763 762 763 766 769 771 772 774 775 776 777 778 780 780 781 782 783 783 783 782 782 781 781 781 781 781 781 781 781 781 780 780 779 779 779 779 779 779 779 779 779 779 778
761 761 762 764 767 769 771 772 773 774 775 777 778 778 779 780 780 780 780 780 780 779 779 780 780 780 779 779 778 778 778 777 777 776 776 776 776 776 776 777 777 776 776
759 758 761 764 766 768 770 770 772 773 773 775 776 776 777 778 779 779 778 778 778 777 777 777 778 778 777 776 775 775 774 774 773 772 772 773 773 772 773 772 772 772 772
758 758 760 762 764 766 768 769 769 771 771 772 774 774 775 775 776 776 775 775 774 774 774 775 775 774 774 773 772 772 771 770 769 768 767 767 767 767 768 768 768 768 768
756 756 758 760 762 763 765 766 767 768 769 770 771 772 773 773 773 772 771 771 772 773 773 774 773 773 772 771 769 768 767 766 764 763 762 763 763 763 763 763 763 763 763
755 756 757 759 759 761 762 764 765 766 767 768 769 770 771 770 770 772 772 772 772 772 771 771 771 769 768 767 765 764 762 761 760 759 757 757 758 758 757 758 759 759 758
754 753 755 755 755 758 759 761 762 764 765 766 766 766 768 768 769 769 769 769 768 769 769 768 767 766 764 764 761 761 759 758 756 755 753 752 752 751 750 751 752 752 752
748 748 748 750 752 754 755 757 759 760 762 762 763 764 765 765 765 765 764 764 763 764 764 763 761 760 758 757 755 754 753 751 749 748 747 745 743 744 744 743 744 744 743
745 743 744 746 747 749 751 753 755 757 759 759 759 760 761 761 762 762 761 759 759 759 758 757 756 754 751 749 747 745 744 743 741 739 738 737 735 735 734 734 733 733 733
745 741 739 741 743 745 748 750 752 754 755 756 756 757 757 758 759 759 757 755 754 754 753 751 749 748 745 742 740 739 736 733 732 731 728 726 725 725 724 722 721 722 722
745 743 741 739 740 742 745 747 749 751 752 753 753 754 755 755 755 755 753 752 751 749 747 745 744 742 739 736 735 731 729 726 722 719 717 716 714 713 713 710 709 709 709
746 745 744 742 740 741 742 744 746 746 748 750 751 752 752 752 752 751 750 748 746 744 741 740 738 737 734 733 732 725 720 716 713 710 709 706 703 701 701 699 700 699 698
752 751 748 746 744 742 743 745 746 747 749 750 750 750 750 750 749 748 746 744 742 740 737 735 734 732 729 727 725 722 715 707 703 700 697 696 694 693 692 691 690 690 689
756 755 753 751 749 747 746 746 747 748 749 750 750 750 749 748 748 746 745 742 739 737 734 732 729 727 723 721 718 718 713 704 697 693 689 686 684 682 681 680 679 678 678
760 759 758 756 754 753 752 750 750 752 753 755 754 753 751 750 749 747 744 742 738 735 731 728 726 723 720 715 714 710 706 700 692 683 682 678 677 675 672 669 667 666 665
763 763 762 760 759 758 756 755 755 755 756 756 755 754 753 751 749 746 744 741 738 735 732 728 724 722 719 713 709 704 698 693 690 685 674 672 671 668 664 662 661 657 655
765 765 764 763 763 762 760 760 759 759 759 757 757 755 753 751 748 746 743 740 737 733 730 726 723 719 715 711 708 704 699 695 689 683 673 666 661 658 657 653 650 650 648
Wind_Speed
20 19 20 19 16 16 14 12 10 8 6 5 5 3 3 3 3 5 4 3 1 0 1 4 4 4 3 1 3 4 3 3 4 3 2 4 4 3 4 4 4 4 3
17 20 21 19 17 16 13 12 9 8 7 6 5 4 4 4 3 5 6 3 3 2 2 3 6 5 5 3 4 2 3 3 1 2 3 6 5 2 1 3 5 5 7
16 22 23 21 18 18 15 12 9 8 7 7 6 5 7 4 4 4 2 2 4 3 2 3 6 7 6 8 7 4 4 3 3 4 4 5 5 3 4 4 5 7 7
16 22 23 21 19 19 14 12 10 9 9 8 8 6 8 4 5 5 5 4 3 3 4 5 5 7 8 6 6 6 5 5 5 6 9 8 5 5 4 5 4 3 3
20 20 21 20 19 18 15 14 11 10 9 9 9 6 9 9 5 5 4 5 5 5 4 7 6 6 6 8 8 9 7 6 6 4 9 10 9 6 5 5 5 4 5
18 19 20 19 20 17 15 14 12 11 10 10 10 8 9 8 5 6 5 6 6 6 6 6 9 6 7 7 9 8 9 8 7 6 11 10 9 8 7 6 7 6 6
18 18 19 20 20 18 16 15 12 11 11 10 7 9 8 9 9 8 7 7 8 8 8 7 8 10 8 10 11 11 10 10 9 9 12 12 10 9 9 7 7 7 7
18 19 19 20 20 18 17 16 13 12 12 12 10 10 12 8 7 8 9 9 10 10 9 8 9 10 12 12 12 12 12 13 12 9 14 14 12 11 11 11 11 10 10
19 19 20 21 21 19 18 16 15 13 13 14 13 13 14 14 9 9 10 10 12 12 11 11 11 11 12 14 14 14 14 16 16 14 14 17 15 13 14 13 13 13 13
20 20 20 22 21 21 20 19 17 14 13 15 16 16 15 15 15 15 14 15 14 14 14 14 13 12 13 14 16 17 18 18 19 19 16 19 18 16 16 16 16 16 16
21 21 22 22 22 21 21 21 19 17 14 17 18 18 17 16 16 18 17 18 17 16 16 16 15 14 16 17 19 20 20 21 21 23 22 21 22 20 19 20 19 19 19
24 23 23 23 22 21 22 22 21 19 18 19 19 19 20 21 19 18 19 19 19 18 18 18 17 17 19 20 20 21 24 24 24 25 26 25 25 23 23 24 24 23 23
23 22 25 25 23 22 23 22 22 22 20 20 21 21 22 22 21 21 22 22 22 20 20 20 21 21 22 23 23 23 25 27 28 28 29 29 31 27 26 27 27 27 26
21 22 25 25 25 25 24 24 21 22 21 22 22 22 23 24 25 25 25 24 23 23 23 23 24 25 24 25 25 26 27 29 30 30 31 30 32 31 29 30 30 30 30
22 23 24 24 27 27 28 27 23 23 23 22 21 23 25 27 28 27 27 25 26 26 26 26 26 26 27 25 26 28 29 31 32 33 34 32 33 36 34 32 33 32 32
23 25 25 28 29 28 29 30 28 25 23 23 23 23 25 27 27 28 28 29 29 27 27 28 29 29 30 29 30 30 32 32 33 34 37 36 36 36 39 35 36 36 35
25 26 27 28 29 30 30 31 30 28 26 26 26 25 25 26 28 28 29 31 31 31 30 30 31 32 33 32 34 34 34 35 37 38 39 41 40 40 41 42 38 39 40
13 21 25 26 28 30 33 32 31 31 29 28 28 27 27 27 28 29 30 32 33 32 33 33 33 34 35 36 38 39 39 38 39 41 41 42 44 44 44 44 46 46 45
11 13 12 18 23 26 30 32 31 30 31 31 30 30 29 28 29 29 32 34 35 34 35 36 36 34 34 33 34 37 39 41 42 43 44 45 46 46 47 48 49 49 50
12 13 16 5 10 18 22 25 28 28 30 30 32 31 31 30 30 30 32 35 36 37 38 38 38 36 36 33 28 30 29 33 37 41 42 41 42 45 46 49 50 50 51
25 21 19 18 12 9 17 20 21 26 28 29 29 29 30 29 29 30 31 34 35 37 39 35 33 31 30 29 21 22 27 33 38 38 38 39 40 43 41 43 44 46 47
25 25 24 24 23 13 5 10 8 5 8 11 13 16 18 22 24 26 28 31 32 33 35 34 30 26 24 26 14 10 5 12 24 31 34 37 37 38 37 37 39 40 41
25 26 27 28 27 25 16 4 3 5 7 13 15 15 14 13 14 14 16 18 22 26 30 30 31 27 24 23 25 12 3 5 2 18 25 29 32 33 34 36 37 37 36
22 24 27 29 30 29 27 27 25 22 16 15 16 17 18 18 17 19 18 19 19 19 20 25 28 24 24 21 22 24 32 26 7 10 19 23 27 32 37 39 39 39 39
19 22 24 26 27 26 25 24 23 22 19 18 19 18 18 18 19 22 23 24 24 24 23 22 23 22 23 24 23 24 23 23 27 10 12 9 24 30 36 37 41 41 41
17 20 22 25 25 24 24 24 23 22 20 21 21 22 22 22 22 23 25 26 26 27 27 26 25 25 24 24 25 25 23 15 13 10 9 11 11 23 32 32 35 39 40
Wind_Direction
195 179 180 180 182 178 166 169 168 171 167 174 171 173 183 185 190 211 210 284 238 236 193 221 203 184 162 200 150 119 133 141 107 98 136 147 158 117 113 81 136 146 142
186 182 182 182 184 178 175 173 173 173 175 178 181 187 198 191 190 215 225 193 210 178 191 203 199 213 222 215 222 195 179 176 132 96 97 147 154 179 152 122 110 124 137
177 179 181 181 188 181 172 179 179 181 182 187 192 200 191 168 185 193 210 175 189 200 201 206 212 210 227 217 185 185 204 203 218 232 199 185 162 179 173 156 122 122 120
179 177 181 181 188 178 191 183 182 188 186 201 195 214 183 199 191 214 225 214 221 220 221 215 212 213 216 197 196 251 244 210 225 242 216 192 181 190 198 181 155 133 126
180 182 182 184 185 179 186 183 184 186 190 201 203 223 199 186 231 196 223 221 214 213 220 210 202 217 223 224 231 255 248 227 232 238 192 193 192 208 205 190 189 202 208
182 185 185 186 187 187 185 186 186 190 194 199 212 212 208 196 223 221 226 224 222 217 216 218 212 208 235 236 236 258 261 240 240 214 199 202 219 202 203 195 196 207 208
182 189 188 191 194 193 191 191 194 194 200 204 203 201 213 227 220 223 220 231 228 224 226 230 234 240 240 246 251 250 259 245 245 239 213 211 212 203 202 199 197 205 209
191 190 193 196 202 204 197 198 199 198 203 209 210 216 225 222 220 218 231 239 237 232 236 238 242 244 244 250 256 245 255 245 246 246 223 221 222 220 218 217 217 217 212
201 196 197 199 205 211 209 210 208 209 207 210 214 225 237 235 236 239 241 249 245 239 242 242 245 247 251 251 254 252 251 245 244 244 242 228 229 229 228 226 226 224 221
207 207 205 206 209 213 215 217 219 223 233 213 219 228 240 242 247 250 243 250 249 244 245 251 253 255 259 260 256 256 255 248 244 243 245 234 234 235 236 235 232 230 228
212 211 214 212 214 220 222 221 227 232 239 221 227 233 242 247 248 248 251 255 253 249 250 258 260 264 265 262 258 254 256 256 248 246 244 242 238 240 240 238 237 235 234
214 211 213 213 217 222 223 226 230 236 238 230 230 236 243 250 257 259 257 259 256 259 259 256 259 264 268 267 263 258 254 256 254 250 248 247 247 246 243 240 240 238 237
223 218 217 218 221 224 226 230 234 237 239 235 236 240 245 250 256 257 257 257 254 256 260 260 262 264 267 267 267 264 261 259 258 256 252 248 247 246 243 243 244 243 241
227 228 227 225 226 228 230 233 236 238 237 237 239 243 247 252 255 257 258 258 258 262 266 267 270 276 277 272 270 268 265 262 260 259 258 255 251 248 248 248 248 246 245
242 238 237 236 233 233 233 235 239 240 240 245 247 250 252 254 258 263 267 271 270 273 273 270 274 278 277 277 274 270 270 267 265 264 264 261 258 253 252 253 251 251 250
258 253 245 241 240 238 238 238 238 243 247 250 252 256 254 255 262 266 269 271 273 275 278 275 278 281 282 281 281 277 275 274 273 269 267 269 264 259 255 255 253 253 253
267 264 253 245 242 240 240 242 241 244 249 254 255 257 258 258 262 267 272 274 276 278 279 277 278 280 279 279 276 277 277 275 273 272 271 270 269 265 262 261 255 253 254
291 269 266 255 245 242 241 242 244 246 247 256 257 260 261 262 264 268 272 277 282 280 277 277 278 278 277 276 277 277 276 277 276 274 274 271 270 270 268 265 262 258 254
4 358 290 258 249 248 243 242 245 249 249 254 260 263 266 267 270 270 272 277 281 279 276 276 278 276 274 273 274 277 276 277 277 277 276 274 272 271 270 269 267 265 262
36 37 39 359 254 248 247 244 246 249 254 258 262 266 270 273 275 274 274 277 279 279 279 278 276 275 274 271 269 268 269 272 274 270 270 271 270 271 271 270 267 265 266
50 50 48 42 31 245 237 239 244 248 255 259 265 274 278 280 281 281 280 281 281 279 281 279 278 275 274 275 271 275 268 269 269 264 264 263 263 266 264 266 265 265 264
55 53 52 49 45 42 267 267 269 304 286 289 305 306 300 294 295 294 292 291 292 289 289 287 277 270 263 267 247 263 280 273 268 270 266 261 267 268 264 267 268 269 269
59 59 61 60 59 57 59 59 30 34 40 30 25 21 17 9 3 352 341 328 317 303 292 289 285 267 265 271 254 237 272 252 295 272 267 266 262 260 262 267 265 266 267
65 67 66 64 62 62 65 68 68 64 62 48 46 48 47 46 38 29 22 14 6 355 322 310 301 278 268 266 276 253 248 262 275 283 262 264 269 260 262 262 260 259 262
71 68 68 68 64 61 60 59 60 58 56 52 43 34 26 21 16 12 9 5 2 359 355 349 338 316 299 283 280 280 266 254 254 260 281 265 265 266 267 262 263 263 262
71 67 68 68 62 58 59 59 57 53 45 38 29 22 14 10 7 5 359 356 353 352 351 347 343 337 329 316 306 303 296 296 295 290 280 275 271 266 269 267 266 264 262